When you browse on this site, cookies collect data to enhance your experience and personalize the content and advertising you see.
Visit our Privacy Policy to learn more. By continuing to use the site, you agree to this use of cookies and data.
EN

Hourly Weather Lubin

Today, 27 September, Sunday

Time Temperature Precipitation Wind Pressure Humidity
00:00 +10°C° 0 mm 5 mps 744 mmHg 87%
01:00 +11°C° 0 mm 4 mps 745 mmHg 88%
02:00 +11°C° 0.1 mm 3 mps 745 mmHg 88%
03:00 +12°C° 0.1 mm 2 mps 746 mmHg 87%
04:00 +12°C° 0.1 mm 1 mps 746 mmHg 87%
05:00 +11°C° 0.6 mm 1 mps 746 mmHg 89%
06:00 +10°C° 0.6 mm 2 mps 746 mmHg 90%
07:00 +10°C° 0 mm 3 mps 747 mmHg 90%
08:00 +10°C° 0.6 mm 4 mps 747 mmHg 91%
09:00 +10°C° 0.6 mm 4 mps 747 mmHg 92%
10:00 +9°C° 0.6 mm 5 mps 747 mmHg 92%
11:00 +9°C° 0.9 mm 5 mps 747 mmHg 92%
12:00 +9°C° 0.9 mm 6 mps 747 mmHg 92%
13:00 +9°C° 0 mm 7 mps 748 mmHg 90%
14:00 +9°C° 0.6 mm 6 mps 748 mmHg 91%
15:00 +9°C° 0.6 mm 6 mps 748 mmHg 92%
16:00 +9°C° 0.6 mm 5 mps 748 mmHg 93%
17:00 +9°C° 1.1 mm 5 mps 748 mmHg 93%
18:00 +9°C° 1.1 mm 5 mps 749 mmHg 93%
19:00 +9°C° 1.1 mm 6 mps 749 mmHg 93%
20:00 +9°C° 0.4 mm 5 mps 750 mmHg 93%
21:00 +9°C° 0.4 mm 5 mps 750 mmHg 93%
22:00 +10°C° 0.4 mm 4 mps 750 mmHg 93%
23:00 +9°C° 0.1 mm 5 mps 751 mmHg 92%

Tomorrow, 28 September, Monday

Time Temperature Precipitation Wind Pressure Humidity
00:00 +9°C° 0.1 mm 5 mps 751 mmHg 91%
01:00 +9°C° 0.1 mm 5 mps 752 mmHg 91%
02:00 +9°C° 0 mm 5 mps 752 mmHg 90%
03:00 +9°C° 0 mm 5 mps 752 mmHg 90%
04:00 +9°C° 0 mm 5 mps 752 mmHg 89%
05:00 +10°C° 0 mm 4 mps 753 mmHg 89%
06:00 +10°C° 0 mm 4 mps 753 mmHg 88%
07:00 +10°C° 0 mm 4 mps 754 mmHg 88%
08:00 +11°C° 0 mm 4 mps 754 mmHg 83%
09:00 +12°C° 0 mm 4 mps 754 mmHg 78%
10:00 +13°C° 0 mm 4 mps 755 mmHg 73%
11:00 +14°C° 0 mm 4 mps 755 mmHg 68%
12:00 +15°C° 0 mm 4 mps 755 mmHg 63%
13:00 +17°C° 0 mm 4 mps 755 mmHg 58%
14:00 +17°C° 0 mm 4 mps 755 mmHg 59%
15:00 +17°C° 0 mm 3 mps 755 mmHg 60%
16:00 +17°C° 0 mm 3 mps 755 mmHg 61%
17:00 +16°C° 0 mm 3 mps 755 mmHg 64%
18:00 +14°C° 0 mm 3 mps 756 mmHg 68%
19:00 +13°C° 0 mm 3 mps 756 mmHg 72%
20:00 +13°C° 0 mm 3 mps 756 mmHg 71%
21:00 +13°C° 0 mm 3 mps 756 mmHg 71%
22:00 +13°C° 0 mm 3 mps 756 mmHg 70%
23:00 +14°C° 0 mm 2 mps 757 mmHg 70%

Day after tomorrow, 29 September, Tuesday

Time Temperature Precipitation Wind Pressure Humidity
00:00 +14°C° 0 mm 2 mps 757 mmHg 70%
01:00 +14°C° 0 mm 2 mps 757 mmHg 70%
02:00 +14°C° 0 mm 2 mps 757 mmHg 71%
03:00 +14°C° 0 mm 2 mps 757 mmHg 71%
04:00 +14°C° 0 mm 2 mps 756 mmHg 72%
05:00 +14°C° 0 mm 2 mps 757 mmHg 72%
06:00 +14°C° 0 mm 2 mps 757 mmHg 73%
07:00 +14°C° 0 mm 2 mps 757 mmHg 73%
08:00 +15°C° 0 mm 2 mps 757 mmHg 70%
09:00 +15°C° 0 mm 2 mps 757 mmHg 67%
10:00 +16°C° 0 mm 2 mps 757 mmHg 64%
11:00 +17°C° 0 mm 2 mps 757 mmHg 63%
12:00 +17°C° 0 mm 2 mps 757 mmHg 61%
13:00 +18°C° 0 mm 2 mps 758 mmHg 60%
14:00 +18°C° 0 mm 2 mps 757 mmHg 61%
15:00 +17°C° 0 mm 2 mps 757 mmHg 63%
16:00 +17°C° 0 mm 2 mps 757 mmHg 65%
17:00 +16°C° 0 mm 3 mps 757 mmHg 70%
18:00 +14°C° 0 mm 3 mps 758 mmHg 75%
19:00 +13°C° 0 mm 3 mps 758 mmHg 80%
20:00 +13°C° 0 mm 3 mps 758 mmHg 81%
21:00 +13°C° 0 mm 3 mps 758 mmHg 83%
22:00 +12°C° 0 mm 3 mps 758 mmHg 84%
23:00 +12°C° 0 mm 3 mps 758 mmHg 84%

30 September, Wednesday

Time Temperature Precipitation Wind Pressure Humidity
00:00 +13°C° 0 mm 2 mps 758 mmHg 84%
01:00 +12°C° 0 mm 2 mps 757 mmHg 84%
02:00 +12°C° 0 mm 2 mps 757 mmHg 84%
03:00 +12°C° 0 mm 2 mps 757 mmHg 84%
04:00 +11°C° 0 mm 1 mps 757 mmHg 85%
05:00 +11°C° 0 mm 1 mps 757 mmHg 85%
06:00 +12°C° 0 mm 2 mps 757 mmHg 85%
07:00 +12°C° 0 mm 2 mps 757 mmHg 86%
08:00 +13°C° 0 mm 2 mps 757 mmHg 80%
09:00 +15°C° 0 mm 1 mps 757 mmHg 75%
10:00 +16°C° 0 mm 1 mps 757 mmHg 69%
11:00 +17°C° 0 mm 2 mps 757 mmHg 68%
12:00 +18°C° 0 mm 2 mps 757 mmHg 66%
13:00 +18°C° 0 mm 2 mps 756 mmHg 65%
14:00 +18°C° 0 mm 2 mps 756 mmHg 67%
15:00 +18°C° 0 mm 2 mps 756 mmHg 70%
16:00 +18°C° 0 mm 3 mps 755 mmHg 73%
17:00 +17°C° 0 mm 3 mps 756 mmHg 79%
18:00 +16°C° 0 mm 3 mps 756 mmHg 85%
19:00 +14°C° 0 mm 3 mps 756 mmHg 91%
20:00 +14°C° 0 mm 3 mps 755 mmHg 91%
21:00 +13°C° 0 mm 3 mps 755 mmHg 91%
22:00 +14°C° 0 mm 2 mps 755 mmHg 91%
23:00 +14°C° 0 mm 2 mps 755 mmHg 91%

1 October, Thursday

Time Temperature Precipitation Wind Pressure Humidity
00:00 +14°C° 0 mm 2 mps 754 mmHg 90%
01:00 +14°C° 0 mm 2 mps 754 mmHg 90%
02:00 +13°C° 0 mm 2 mps 754 mmHg 88%
03:00 +13°C° 0 mm 2 mps 753 mmHg 87%
04:00 +13°C° 0 mm 2 mps 753 mmHg 86%
05:00 +13°C° 0 mm 2 mps 753 mmHg 85%
06:00 +13°C° 0 mm 2 mps 753 mmHg 85%
07:00 +11°C° 0 mm 3 mps 753 mmHg 84%
08:00 +13°C° 0 mm 3 mps 752 mmHg 78%
09:00 +14°C° 0 mm 3 mps 752 mmHg 72%
10:00 +17°C° 0 mm 3 mps 752 mmHg 67%
11:00 +17°C° 0 mm 3 mps 751 mmHg 65%
12:00 +18°C° 0 mm 3 mps 751 mmHg 62%
13:00 +19°C° 0 mm 3 mps 750 mmHg 60%
14:00 +19°C° 0 mm 3 mps 750 mmHg 64%
15:00 +19°C° 0 mm 3 mps 749 mmHg 67%
16:00 +18°C° 0 mm 3 mps 749 mmHg 70%
17:00 +18°C° 0 mm 3 mps 749 mmHg 74%
18:00 +17°C° 0 mm 3 mps 749 mmHg 78%
19:00 +15°C° 0 mm 4 mps 749 mmHg 81%
20:00 +15°C° 0 mm 4 mps 748 mmHg 80%
21:00 +15°C° 0 mm 4 mps 748 mmHg 79%
22:00 +15°C° 0 mm 4 mps 748 mmHg 77%
23:00 +15°C° 0 mm 4 mps 748 mmHg 78%

2 October, Friday

Time Temperature Precipitation Wind Pressure Humidity
00:00 +14°C° 0 mm 4 mps 747 mmHg 79%
01:00 +14°C° 0 mm 4 mps 747 mmHg 80%
02:00 +14°C° 0 mm 4 mps 747 mmHg 80%
03:00 +14°C° 0 mm 4 mps 747 mmHg 81%
04:00 +14°C° 0 mm 5 mps 746 mmHg 81%
05:00 +14°C° 0.1 mm 4 mps 747 mmHg 83%
06:00 +13°C° 0.1 mm 4 mps 747 mmHg 86%
07:00 +13°C° 0.1 mm 4 mps 747 mmHg 88%
08:00 +13°C° 0 mm 4 mps 747 mmHg 86%
09:00 +14°C° 0 mm 3 mps 747 mmHg 84%
10:00 +14°C° 0 mm 3 mps 747 mmHg 81%
11:00 +14°C° 0 mm 3 mps 747 mmHg 79%
12:00 +15°C° 0 mm 2 mps 747 mmHg 77%
13:00 +16°C° 0 mm 2 mps 747 mmHg 76%
14:00 +16°C° 0 mm 2 mps 746 mmHg 75%
15:00 +16°C° 0 mm 3 mps 746 mmHg 74%
16:00 +16°C° 0 mm 3 mps 746 mmHg 73%
17:00 +14°C° 0 mm 3 mps 746 mmHg 76%
18:00 +14°C° 0 mm 4 mps 746 mmHg 79%
19:00 +13°C° 0 mm 4 mps 746 mmHg 82%
20:00 +13°C° 0 mm 5 mps 746 mmHg 83%
21:00 +12°C° 0 mm 5 mps 746 mmHg 85%
22:00 +12°C° 0 mm 5 mps 746 mmHg 86%
23:00 +11°C° 0 mm 6 mps 745 mmHg 87%
Show more